Elkins, WV

3:11 AM EDT on October 17, 2017 (GMT -0400)
Elkins-Randolph County

Weather History for KEKN - September, 2014

Change the Weather History Date:

Wednesday, September 3, 2014

  Actual Average Record
Temperature  
Mean Temperature 71 °F 66 °F  
Max Temperature 82 °F 78 °F 97 °F (1953)
Min Temperature 59 °F 55 °F 39 °F (1934)
Degree Days  
Heating Degree Days 0 2  
Month to date heating degree days 0 4  
Since 1 July heating degree days 51 34  
Cooling Degree Days 6 3  
Month to date cooling degree days 28 9  
Year to date cooling degree days 466 435  
Growing Degree Days 22 (Base 50)    
Moisture  
Dew Point 63 °F    
Average Humidity 69    
Maximum Humidity 93    
Minimum Humidity 45    
Precipitation  
Precipitation T in 0.13 in 1.76 in (1943)
Month to date precipitation 0.06 0.38  
Year to date precipitation 28.29 33.19  
Snow  
Snow 0.00 in - - ()
Month to date snowfall 0.0  
Since 1 September snowfall 0.0  
Snow Depth 0.00 in    
Sea Level Pressure  
Sea Level Pressure 30.10 in    
Wind  
Wind Speed 1 mph (WNW)    
Max Wind Speed 7 mph    
Max Gust Speed 10 mph    
Visibility 10 miles    
Events      
T = Trace of Precipitation, MM = Missing Value Source: NWS Daily Summary

Daily Weather History Graph

Daily Weather History Graph

Search for Another Location

Airport or City:

Trip Planner

Search our weather history database for the weather conditions in past years. The results will help you decide how hot, cold, wet, or windy it might be!

Date:

Astronomy

Sep. 03, 2014 Rise Set
Actual Time 6:50 AM EDT 7:46 PM EDT
Civil Twilight 6:22 AM EDT 8:13 PM EDT
Nautical Twilight 5:50 AM EDT 8:46 PM EDT
Astronomical Twilight 5:17 AM EDT 9:19 PM EDT
Moon 3:25 PM EDT (9/3) 12:44 AM EDT (9/3)
Length of Visible Light 13h 50m
Length of Day
12h 56m
Waxing Gibbous, 63% of the Moon is Illuminated
Sep 3
Waxing Gibbous
Sep 8
Full
Sep 15
Last Quarter
Sep 24
New
Oct 1
First Quarter

Hourly Weather History & Observations

Time (EDT) Temp. Heat Index Dew Point Humidity Pressure Visibility Wind Dir Wind Speed Gust Speed Precip Events Conditions
12:05 AM 69.1 °F - 66.0 °F 90% 30.06 in 9.0 mi Calm Calm - N/A   Overcast
12:51 AM 70.0 °F - 66.9 °F 90% 30.02 in 10.0 mi Calm Calm - N/A   Overcast
1:51 AM 71.1 °F - 64.9 °F 81% 30.01 in 10.0 mi WSW 3.5 mph - N/A   Overcast
2:51 AM 70.0 °F - 64.9 °F 84% 30.03 in 10.0 mi Calm Calm - N/A   Overcast
3:51 AM 70.0 °F - 64.9 °F 84% 30.03 in 10.0 mi Calm Calm - N/A   Overcast
4:35 AM 70.0 °F - 64.0 °F 81% 30.07 in 10.0 mi West 3.5 mph - 0.00 in   Mostly Cloudy
4:51 AM 70.0 °F - 64.0 °F 81% 30.04 in 10.0 mi Calm Calm - 0.00 in   Mostly Cloudy
5:51 AM 70.0 °F - 64.0 °F 81% 30.05 in 10.0 mi Calm Calm - 0.00 in   Mostly Cloudy
6:51 AM 66.9 °F - 64.0 °F 90% 30.07 in 10.0 mi Calm Calm - 0.00 in   Mostly Cloudy
6:58 AM 66.9 °F - 64.0 °F 90% 30.10 in 10.0 mi Calm Calm - N/A   Mostly Cloudy
7:51 AM 69.1 °F - 64.9 °F 87% 30.09 in 7.0 mi Calm Calm - N/A   Overcast
8:51 AM 71.1 °F - 64.0 °F 78% 30.10 in 10.0 mi Calm Calm - N/A   Overcast
9:17 AM 71.1 °F - 64.0 °F 78% 30.13 in 10.0 mi Calm Calm - N/A   Scattered Clouds
9:31 AM 72.0 °F - 64.9 °F 78% 30.14 in 10.0 mi Calm Calm - N/A   Mostly Cloudy
9:51 AM 72.0 °F - 64.0 °F 76% 30.12 in 10.0 mi Calm Calm - N/A   Overcast
10:13 AM 73.0 °F - 64.9 °F 76% 30.15 in 10.0 mi SSW 4.6 mph - N/A   Scattered Clouds
10:51 AM 75.0 °F - 64.0 °F 69% 30.13 in 10.0 mi Calm Calm - N/A   Partly Cloudy
11:51 AM 75.2 °F - 62.6 °F 65% 30.15 in 10.0 mi North 3.5 mph - N/A   Mostly Cloudy
12:51 PM 78.1 °F - 62.1 °F 58% 30.12 in 10.0 mi NW 4.6 mph - N/A   Clear
1:51 PM 78.1 °F - 61.0 °F 56% 30.11 in 10.0 mi Calm Calm - N/A   Partly Cloudy
2:51 PM 80.1 °F 81.1 °F 61.0 °F 52% 30.10 in 10.0 mi NW 3.5 mph - N/A   Clear
3:51 PM 79.0 °F - 57.9 °F 48% 30.10 in 10.0 mi Calm Calm - N/A   Clear
4:51 PM 81.0 °F 81.3 °F 59.0 °F 47% 30.09 in 10.0 mi West 4.6 mph - N/A   Clear
5:51 PM 81.0 °F 81.1 °F 57.9 °F 45% 30.09 in 10.0 mi West 5.8 mph - N/A   Clear
6:51 PM 78.1 °F - 60.1 °F 54% 30.10 in 10.0 mi NW 4.6 mph - N/A   Clear
7:51 PM 69.1 °F - 62.1 °F 78% 30.12 in 10.0 mi Calm Calm - N/A   Clear
8:51 PM 64.0 °F - 60.1 °F 87% 30.14 in 10.0 mi Calm Calm - N/A   Clear
9:51 PM 62.1 °F - 59.0 °F 90% 30.17 in 10.0 mi Calm Calm - N/A   Clear
10:51 PM 61.0 °F - 57.9 °F 90% 30.18 in 10.0 mi Calm Calm - N/A   Clear
11:51 PM 60.8 °F - 57.2 °F 88% 30.21 in 8.0 mi Calm Calm - N/A   Clear